Flag for U.S.A. Weather past 2 weeks in Cleveland, Ohio, U.S.A.

Now
58 °F

Sunny.


Feels Like: 58 °F
Forecast: 50 / 66 °F
Wind: 3 mph from Northwest

Location: Cleveland-Hopkins International Airport

Current Time: Sep 16, 2014 at 8:23:43 PM

Latest Report: Sep 16, 2014 at 7:51 PM


Visibility: 10 mi

Pressure: 30.10 "Hg

Humidity: 70%

Dew point: 48 °F

Location of ClevelandLocation

Historic Weather in Cleveland — Graph

°F

Cleveland temperature yesterday

Maximum temperature yesterday: 64 °F (at 11:51 AM)
Minimum temperature yesterday: 46 °F (at 6:51 AM)
Average temperature yesterday: 56 °F

Past Weeks' High & Low Weather Summary

 TemperatureHumidityPressure
High89 °F (Sep 5, 1:51 PM)97% (Sep 3, 6:51 AM)30.37 "Hg (Sep 3, 6:51 AM)
Low43 °F (Sep 14, 5:51 AM)42% (Sep 8, 4:51 PM)29.67 "Hg (Sep 10, 7:51 PM)
Average66 °F76%30.09 "Hg
* Reported Sep 1 6:51 PM — Sep 16 6:51 PM, Cleveland, Weather by CustomWeather, © 2014

Note: Actual official high and low records may vary slightly from our data, if they occured in-between our weather recording intervals... More about our weather records

Advertising

Cleveland weather history for previous 24 hours

 ConditionsComfort  
Time TempWeatherWind HumidityBarometerVisibility
6:51 PM
Sep 16
60 °FPassing clouds.6 mph65%30.11 "Hg10 mi
5:51 PM63 °FScattered clouds.12 mph60%30.11 "Hg10 mi
4:51 PM62 °FScattered clouds.10 mph65%30.11 "Hg10 mi
3:51 PM63 °FScattered clouds.12 mph63%30.12 "Hg10 mi
2:51 PM63 °FBroken clouds.7 mph63%30.13 "Hg10 mi
1:51 PM62 °FPartly sunny.5 mph65%30.14 "Hg10 mi
12:51 PM63 °FBroken clouds.10 mph68%30.14 "Hg10 mi
11:51 AM62 °FBroken clouds.8 mph73%30.15 "Hg10 mi
10:51 AM59 °FMore clouds than sun.8 mph81%30.16 "Hg10 mi
9:51 AM58 °FMostly cloudy.5 mph87%30.16 "Hg9 mi
8:51 AM54 °FLight rain. Mostly cloudy.5 mph97%30.15 "Hg2 mi
7:51 AM53 °FFog.5 mph96%30.14 "Hg2 mi
6:51 AM53 °FFog.6 mph96%30.12 "Hg2 mi
5:51 AM53 °FFog.5 mph96%30.11 "Hg3 mi
4:51 AM54 °FLight rain. Fog.6 mph93%30.11 "Hg5 mi
3:58 AM53 °FFog.6 mph93%30.10 "Hg5 mi
2:51 AM52 °FPassing clouds.5 mph97%30.10 "Hg10 mi
2:03 AM54 °FMostly cloudy.3 mph93%30.10 "Hg10 mi
1:51 AM54 °FOvercast.3 mph93%30.09 "Hg10 mi
12:51 AM55 °FMostly cloudy.6 mph87%30.09 "Hg10 mi
11:51 PM
Sep 15
56 °FLight rain. Fog.3 mph93%30.09 "Hg5 mi
10:59 PM56 °FLight rain. Fog.7 mph97%30.11 "Hg6 mi
9:57 PM57 °FRain. Fog.7 mph93%30.11 "Hg2 mi
8:51 PM58 °FLight rain. Mostly cloudy.5 mph90%30.10 "Hg7 mi
Weather by CustomWeather, © 2014

See weather overviewHow to use our weather pages